COSMOS 397 DEB *

Satellite information

Favourite Embed

Satellite Type and Status

DEBRISIN ORBIT

Key statistics

Satellite COSMOS 397 DEB * at a glance.

Uptime

19855

Days in orbit

Revolutions

≈ 14.1

Per day

Orbit

LEO

Low Earth Orbit

Inclination

66.9

Latest

Satellite identification and parameters

Extended collection of information and parameters for COSMOS 397 DEB *.

Object identification

Identified? True

Debris? True

Object name: COSMOS 397 DEB *

International designator: 1971-015BR

Object number (NORAD): 5527

Object ID (CCSDS): 5527

Country: COMMONWEALTH OF INDEPENDENT STATES (CIS)

Current information (Y/N): Y

RCS size: SMALL

Orbital parameters

Period: 101.849 minutes

Inclination: 66.8797 deg

SMA: 7224.357 km

Apoapsis: 906.032 km

Periapsis: 786.411 km

RAAN: 76.0692 deg

Eccentricy: 0.008279

Argument of periapsis: 229.6801 deg

Mean anomaly: 129.7037 deg

Mean motion: 14.13852188 rev/day

Mean motion (dot): 0.00001325 rev/day2

B* drag term: 0.00071698 1/REarth

Two-line elements (TLE)

Creation date: July 5, 2025, 5:45 p.m.

Reference frame: TEME

Reference center: EARTH

Epoch: July 5, 2025, 2:48 a.m. UTC

TLE line 0: 0 COSMOS 397 DEB *

TLE line 1: 1 05527U 71015BR 25186.11686516 .00001325 00000-0 71698-3 0 9994

TLE line 2: 2 05527 66.8797 76.0692 0082790 229.6801 129.7037 14.13852188741336

Live tracking on map

Real-time ground track for satellite COSMOS 397 DEB *.

In-orbit conjunctions

A list of the most updated potential collisions computed for object COSMOS 397 DEB *.

Target Orbit TCA Probability of collision Miss distance Type
FENGYUN 1C DEB SSO 2025-04-28 11:06:16 0.0001079463 122.0 (m) DEBRIS
PORCUPINE 1 LEO 2025-03-30 05:16:39 0.000144564 165.0 (m) PAYLOAD
CZ-6A DEB LEO 2025-02-03 09:50:57 0.0001336086 365.0 (m) DEBRIS
METEOR M2-3 DEB SSO 2024-12-22 01:28:38 0.006357194 53.0 (m) DEBRIS

Associated space launch

The I2P satellites were the first soviet coorbital ASAT system.

COSMOS 397 DEB * was lifted into orbit during the mission ‘Tsiklon-2 | I2P 6’, on board a Tsiklon-2 space rocket.

The launch took place on Feb. 25, 1971, 11:11 a.m. from 90/20.

For more information about the launch, click the button.

Launch to space Tsiklon-2 | I2P 6
Tsiklon-2 | I2P 6

Agency: N/A

Status: Launch Successful

Launch date: Feb. 25, 1971, 11:11 a.m. UTC

Rocket: Tsiklon-2

Launch pad: 90/20

Location: Baikonur Cosmodrome, Republic of Kazakhstan

...

Latest news about this satellite

There are no fresh news available about this satellite. Check back as we update our databases every day.


Newsletter sign-up

Weekly statistics, charts and insights to help you stay on top of the space industry.